Blakely, GA

10:57 AM EST on February 07, 2016 (GMT -0500)
Blakely

Weather History for KBIJ - February, 2013

Change the Weather History Date:

Monday, February 18, 2013

  Actual Average (KDHN) Record (KDHN)
Temperature  
Mean Temperature 45 °F 54 °F  
Max Temperature 60 °F 66 °F - ()
Min Temperature 30 °F 42 °F - ()
Degree Days  
Heating Degree Days 20 11  
Month to date heating degree days 239  
Since 1 July heating degree days 1455  
Moisture  
Dew Point 32 °F    
Average Humidity 65    
Maximum Humidity 100    
Minimum Humidity 31    
Precipitation  
Precipitation 0.00 in 0.21 in - ()
Month to date precipitation 3.05  
Year to date precipitation 7.68  
Sea Level Pressure  
Sea Level Pressure 30.31 in    
Wind  
Wind Speed 1 mph (SSE)    
Max Wind Speed 10 mph    
Max Gust Speed 18 mph    
Visibility 10 miles    
Events      
T = Trace of Precipitation, MM = Missing Value Source: NWS Daily Summary

Daily Weather History Graph

Daily Weather History Graph

Search for Another Location

Airport or City:

Trip Planner

Search our weather history database for the weather conditions in past years. The results will help you decide how hot, cold, wet, or windy it might be!

Date:

Astronomy

Feb. 18, 2013 Rise Set
Actual Time 7:17 AM EST 6:29 PM EST
Civil Twilight 6:53 AM EST 6:54 PM EST
Nautical Twilight 6:24 AM EST 7:22 PM EST
Astronomical Twilight 5:56 AM EST 7:50 PM EST
Moon 12:25 PM EST (2/18) 1:46 AM EST (2/18)
Length of Visible Light 12h 00m
Length of Day
11h 11m
First Quarter, 58% of the Moon is Illuminated
Feb 18
First Quarter
Feb 25
Full
Mar 4
Last Quarter
Mar 11
New
Mar 19
First Quarter

Hourly Weather History & Observations

Time (EST) Temp. Dew Point Humidity Pressure Visibility Wind Dir Wind Speed Gust Speed Precip Events Conditions
12:15 AM 32.0 °F 32.0 °F 100% 30.34 in 10.0 mi Calm Calm - N/A   Clear
12:35 AM 32.0 °F 32.0 °F 100% 30.35 in 10.0 mi Calm Calm - N/A   Clear
12:55 AM 33.8 °F 32.0 °F 93% 30.35 in 10.0 mi Calm Calm - N/A   Clear
1:15 AM 32.0 °F 32.0 °F 100% 30.35 in 10.0 mi Calm Calm - N/A   Clear
1:55 AM 32.0 °F 32.0 °F 100% 30.34 in 10.0 mi Calm Calm - N/A   Clear
2:15 AM 32.0 °F 32.0 °F 100% 30.34 in 10.0 mi Calm Calm - N/A   Clear
2:35 AM 32.0 °F 32.0 °F 100% 30.34 in 10.0 mi Calm Calm - N/A   Clear
2:55 AM 32.0 °F 32.0 °F 100% 30.34 in 10.0 mi Calm Calm - N/A   Clear
3:15 AM 32.0 °F 32.0 °F 100% 30.33 in 10.0 mi Calm Calm - N/A   Clear
3:35 AM 32.0 °F 32.0 °F 100% 30.33 in 10.0 mi Calm Calm - N/A   Clear
3:55 AM 32.0 °F 32.0 °F 100% 30.33 in 10.0 mi Calm Calm - N/A   Clear
4:15 AM 32.0 °F 32.0 °F 100% 30.33 in 10.0 mi Calm Calm - N/A   Clear
4:35 AM 30.2 °F 30.2 °F 100% 30.33 in 10.0 mi Calm Calm - N/A   Clear
4:55 AM 32.0 °F 32.0 °F 100% 30.34 in 10.0 mi Calm Calm - N/A   Clear
5:15 AM 32.0 °F 32.0 °F 100% 30.34 in 10.0 mi Calm Calm - N/A   Clear
5:35 AM 30.2 °F 30.2 °F 100% 30.34 in 10.0 mi Calm Calm - N/A   Clear
5:55 AM 30.2 °F 30.2 °F 100% 30.34 in 10.0 mi Calm Calm - N/A   Clear
6:15 AM 30.2 °F 30.2 °F 100% 30.34 in 10.0 mi Calm Calm - N/A   Clear
6:35 AM 30.2 °F 30.2 °F 100% 30.34 in 10.0 mi Calm Calm - N/A   Clear
6:55 AM 30.2 °F 30.2 °F 100% 30.34 in 10.0 mi Calm Calm - N/A   Clear
7:15 AM 30.2 °F 30.2 °F 100% 30.35 in 10.0 mi Calm Calm - N/A   Clear
7:35 AM 30.2 °F 30.2 °F 100% 30.36 in 10.0 mi Calm Calm - N/A   Clear
7:55 AM 32.0 °F 32.0 °F 100% 30.37 in 10.0 mi Calm Calm - N/A   Clear
8:15 AM 32.0 °F 32.0 °F 100% 30.37 in 10.0 mi Calm Calm - N/A   Clear
8:35 AM 33.8 °F 33.8 °F 100% 30.38 in 10.0 mi Calm Calm - N/A   Clear
8:55 AM 37.4 °F 35.6 °F 93% 30.39 in 10.0 mi Calm Calm - N/A   Clear
9:15 AM 41.0 °F 35.6 °F 81% 30.39 in 10.0 mi Calm Calm - N/A   Clear
9:35 AM 44.6 °F 37.4 °F 76% 30.39 in 10.0 mi Calm Calm - N/A   Clear
9:55 AM 48.2 °F 35.6 °F 62% 30.39 in 10.0 mi Calm Calm - N/A   Clear
10:15 AM 51.8 °F 33.8 °F 50% 30.39 in 10.0 mi SSE 6.9 mph - N/A   Clear
10:35 AM 51.8 °F 33.8 °F 50% 30.39 in 10.0 mi South 4.6 mph - N/A   Clear
10:55 AM 53.6 °F 33.8 °F 47% 30.39 in 10.0 mi South 9.2 mph - N/A   Clear
11:15 AM 53.6 °F 32.0 °F 44% 30.38 in 10.0 mi SE 9.2 mph - N/A   Clear
11:35 AM 55.4 °F 32.0 °F 41% 30.38 in 10.0 mi SE 6.9 mph - N/A   Clear
11:55 AM 55.4 °F 32.0 °F 41% 30.37 in 10.0 mi SSW 3.5 mph - N/A   Clear
12:15 PM 57.2 °F 32.0 °F 38% 30.37 in 10.0 mi South 8.1 mph - N/A   Clear
12:35 PM 57.2 °F 32.0 °F 38% 30.36 in 10.0 mi ESE 5.8 mph - N/A   Clear
12:55 PM 59.0 °F 33.8 °F 39% 30.35 in 10.0 mi SE 8.1 mph 18.4 mph N/A   Clear
1:15 PM 59.0 °F 33.8 °F 39% 30.34 in 10.0 mi SSE 10.4 mph - N/A   Clear
1:35 PM 59.0 °F 32.0 °F 36% 30.33 in 10.0 mi SE 5.8 mph - N/A   Clear
1:55 PM 59.0 °F 32.0 °F 36% 30.31 in 10.0 mi SE 4.6 mph - N/A   Clear
2:15 PM 59.0 °F 32.0 °F 36% 30.31 in 10.0 mi East 6.9 mph - N/A   Clear
2:35 PM 60.8 °F 32.0 °F 34% 30.30 in 10.0 mi SE 3.5 mph - N/A   Clear
2:55 PM 60.8 °F 33.8 °F 36% 30.29 in 10.0 mi SE 5.8 mph 16.1 mph N/A   Clear
3:15 PM 60.8 °F 33.8 °F 36% 30.28 in 10.0 mi SE 5.8 mph 9.2 mph N/A   Clear
3:35 PM 60.8 °F 32.0 °F 34% 30.28 in 10.0 mi South 4.6 mph - N/A   Clear
3:55 PM 60.8 °F 32.0 °F 34% 30.28 in 10.0 mi SE 9.2 mph - N/A   Clear
4:15 PM 60.8 °F 32.0 °F 34% 30.27 in 10.0 mi South 8.1 mph - N/A   Clear
4:35 PM 60.8 °F 30.2 °F 31% 30.27 in 10.0 mi SSE 9.2 mph 16.1 mph N/A   Clear
4:55 PM 60.8 °F 30.2 °F 31% 30.26 in 10.0 mi SSE 10.4 mph - N/A   Clear
5:15 PM 60.8 °F 30.2 °F 31% 30.26 in 10.0 mi ESE 8.1 mph - N/A   Clear
5:35 PM 60.8 °F 30.2 °F 31% 30.26 in 10.0 mi SSE 3.5 mph - N/A   Clear
5:55 PM 59.0 °F 30.2 °F 34% 30.25 in 10.0 mi Calm Calm - N/A   Clear
6:15 PM 59.0 °F 30.2 °F 34% 30.24 in 10.0 mi Calm Calm - N/A   Clear
6:35 PM 55.4 °F 30.2 °F 38% 30.24 in 10.0 mi Calm Calm - N/A   Clear
6:55 PM 53.6 °F 32.0 °F 44% 30.24 in 10.0 mi Calm Calm - N/A   Scattered Clouds
7:15 PM 50.0 °F 35.6 °F 58% 30.24 in 10.0 mi Calm Calm - N/A   Scattered Clouds
7:35 PM 48.2 °F 33.8 °F 58% 30.24 in 10.0 mi Calm Calm - N/A   Scattered Clouds
7:55 PM 46.4 °F 37.4 °F 71% 30.22 in 10.0 mi Calm Calm - N/A   Clear
8:15 PM 50.0 °F 30.2 °F 47% 30.22 in 10.0 mi Calm Calm - N/A   Clear
8:35 PM 50.0 °F 30.2 °F 47% 30.21 in 10.0 mi Calm Calm - N/A   Clear
8:55 PM 50.0 °F 32.0 °F 50% 30.21 in 10.0 mi Calm Calm - N/A   Clear
9:15 PM 50.0 °F 32.0 °F 50% 30.21 in 10.0 mi Calm Calm - N/A   Clear
9:35 PM 48.2 °F 32.0 °F 54% 30.22 in 10.0 mi Calm Calm - N/A   Clear
9:55 PM 48.2 °F 30.2 °F 50% 30.22 in 10.0 mi Calm Calm - N/A   Clear
10:15 PM 48.2 °F 30.2 °F 50% 30.21 in 10.0 mi Calm Calm - N/A   Clear
10:35 PM 48.2 °F 32.0 °F 54% 30.22 in 10.0 mi Calm Calm - N/A   Clear
10:55 PM 46.4 °F 32.0 °F 57% 30.22 in 10.0 mi Calm Calm - N/A   Clear
11:15 PM 46.4 °F 32.0 °F 57% 30.21 in 10.0 mi Calm Calm - N/A   Clear
11:35 PM 46.4 °F 32.0 °F 57% 30.20 in 10.0 mi Calm Calm - N/A   Clear
11:55 PM 46.4 °F 32.0 °F 57% 30.19 in 10.0 mi Calm Calm - N/A   Clear